Date String (YYYY-MM-DD hh:mm:ss) UTC,Instrument flags,absolute air pressure of the measurement (hPa),sample flow rate (lpm),inlet stack bypass flow (lpm),air temperature of the measurement (°C),ambient temperature measured by the external sensor (°C),aerosol sample conditioner tube jacket temperature (°C),OPC LED temperature (°C),internal box temperature (°C),relative humidity of the measurement (%),span deviation,mass concentration of particles derived from Lorenz-Mie calculation of OPC scattering (μg/m³),mass concentration of particles derived from Lorenz-Mie calculation of OPC scattering (μg/m³),mass concentration of particles derived from Lorenz-Mie calculation of OPC scattering (μg/m³)
DateTimeUTC,F1_M11,P_M11,Q1_M11,Q2_M11,T1_M11,T2_M11,T3_M11,T4_M11,T5_M11,U1_M11,ZSPAN_M11,X0_M11,X2_M11,X1_M11
2024-02-07 06:00:00,SystemResetWarning,0816.9,5.00,000.00,022.2,021.5,000.0,030.6,024.0,17.0,0000.0,0007.38,0002.86,0002.33
2024-02-07 06:01:00,SystemResetWarning,0816.9,4.99,000.00,022.2,021.5,000.0,030.6,023.9,17.0,0000.0,0007.74,0002.92,0002.36
2024-02-07 06:02:00,SystemResetWarning,0816.9,5.00,000.00,022.2,021.5,000.0,030.6,023.9,17.0,0000.0,0008.05,0003.02,0002.42
2024-02-07 06:03:00,SystemResetWarning,0816.9,5.00,000.00,022.1,021.5,000.0,030.6,023.9,17.0,0000.0,0007.95,0003.01,0002.46
2024-02-07 06:04:00,SystemResetWarning,0816.9,5.01,000.00,022.1,021.5,000.0,030.6,023.9,17.0,0000.0,0007.91,0003.06,0002.53
2024-02-07 06:05:00,SystemResetWarning,0816.9,5.01,000.00,022.1,021.4,000.0,030.6,023.9,17.0,0000.0,0007.99,0003.12,0002.59
2024-02-07 06:06:00,SystemResetWarning,0816.9,5.00,000.00,022.1,021.4,000.0,030.6,023.9,17.0,0000.0,0007.93,0003.18,0002.66
2024-02-07 06:07:00,SystemResetWarning,0816.9,4.99,000.00,022.1,021.4,000.0,030.6,023.9,17.1,0000.0,0007.66,0003.26,0002.77
2024-02-07 06:08:00,SystemResetWarning,0816.9,4.99,000.00,022.1,021.4,000.0,030.6,023.9,17.1,0000.0,0006.76,0003.32,0002.90
2024-02-07 06:09:00,SystemResetWarning,0816.9,5.01,000.00,022.1,021.4,000.0,030.6,023.9,17.0,0000.0,0006.65,0003.35,0002.98
2024-02-07 06:10:00,SystemResetWarning,0816.9,5.01,000.00,022.1,021.4,000.0,030.6,023.9,17.0,0000.0,0006.51,0003.40,0003.08
2024-02-07 06:11:00,SystemResetWarning,0816.9,5.01,000.00,022.1,021.4,000.0,030.5,023.9,16.9,0000.0,0006.60,0003.48,0003.16
2024-02-07 06:12:00,SystemResetWarning,0816.9,5.00,000.00,022.1,021.4,000.0,030.5,023.9,16.8,0000.0,0006.60,0003.57,0003.25
2024-02-07 06:13:00,SystemResetWarning,0816.9,4.99,000.00,022.1,021.4,000.0,030.5,023.9,16.7,0000.0,0006.75,0003.62,0003.32
2024-02-07 06:14:00,SystemResetWarning,0816.9,4.99,000.00,022.1,021.4,000.0,030.5,023.9,16.7,0000.0,0007.92,0003.64,0003.35
2024-02-07 06:15:00,SystemResetWarning,0816.9,4.99,000.00,022.1,021.4,000.0,030.5,023.9,16.8,0000.0,0008.49,0003.67,0003.40
2024-02-07 06:16:00,SystemResetWarning,0816.9,5.01,000.00,022.1,021.4,000.0,030.5,023.9,17.0,0000.0,0008.76,0003.69,0003.44
2024-02-07 06:17:00,SystemResetWarning,0816.9,5.00,000.00,022.1,021.4,000.0,030.5,023.9,17.0,0000.0,0009.57,0003.70,0003.48
2024-02-07 06:18:00,SystemResetWarning,0816.8,5.01,000.00,022.1,021.4,000.0,030.5,023.9,17.0,0000.0,0009.76,0003.70,0003.51
2024-02-07 06:19:00,SystemResetWarning,0816.9,5.00,000.00,022.1,021.4,000.0,030.5,023.9,17.0,0000.0,0010.48,0003.72,0003.52
2024-02-07 06:20:00,SystemResetWarning,0816.8,4.99,000.00,022.0,021.4,000.0,030.5,023.9,17.0,0000.0,0010.54,0003.77,0003.58
2024-02-07 06:21:00,SystemResetWarning,0816.7,4.99,000.00,022.0,021.4,000.0,030.5,023.8,16.9,0000.0,0010.48,0003.84,0003.64
2024-02-07 06:22:00,SystemResetWarning,0816.7,5.00,000.00,022.0,021.4,000.0,030.5,023.8,16.8,0000.0,0010.50,0003.89,0003.69
2024-02-07 06:23:00,SystemResetWarning,0816.7,5.00,000.00,022.0,021.3,000.0,030.5,023.8,16.8,0000.0,0010.45,0003.93,0003.73
2024-02-07 06:24:00,SystemResetWarning,0816.7,5.02,000.00,022.0,021.3,000.0,030.5,023.8,17.0,0000.0,0010.15,0003.98,0003.75
2024-02-07 06:25:00,SystemResetWarning,0816.6,5.00,000.00,022.0,021.3,000.0,030.5,023.8,17.0,0000.0,0009.35,0004.04,0003.79
2024-02-07 06:26:00,SystemResetWarning,0816.5,5.00,000.00,022.0,021.3,000.0,030.5,023.8,17.0,0000.0,0008.81,0004.06,0003.81
2024-02-07 06:27:00,SystemResetWarning,0816.5,5.00,000.00,022.0,021.3,000.0,030.5,023.8,17.0,0000.0,0008.57,0004.10,0003.84
2024-02-07 06:28:00,SystemResetWarning,0816.5,4.99,000.00,022.0,021.3,000.0,030.5,023.8,17.0,0000.0,0007.95,0004.18,0003.89
2024-02-07 06:29:00,SystemResetWarning,0816.5,5.00,000.00,022.0,021.3,000.0,030.4,023.8,17.1,0000.0,0007.88,0004.24,0003.94
2024-02-07 06:30:00,SystemResetWarning,0816.5,5.01,000.00,022.0,021.3,000.0,030.4,023.8,17.2,0000.0,0007.10,0004.25,0003.96
2024-02-07 06:31:00,SystemResetWarning,0816.5,5.01,000.00,022.0,021.3,000.0,030.4,023.7,17.2,0000.0,0007.04,0004.27,0003.97
2024-02-07 06:32:00,SystemResetWarning,0816.7,4.99,000.00,022.0,021.3,000.0,030.4,023.7,17.1,0000.0,0007.11,0004.26,0003.96
2024-02-07 06:33:00,SystemResetWarning,0816.7,5.00,000.00,021.9,021.2,000.0,030.4,023.7,17.1,0000.0,0007.23,0004.24,0003.95
2024-02-07 06:34:00,SystemResetWarning,0816.7,4.99,000.00,021.9,021.2,000.0,030.4,023.7,17.1,0000.0,0007.45,0004.22,0003.93
2024-02-07 06:35:00,SystemResetWarning,0816.7,5.00,000.00,021.9,021.2,000.0,030.4,023.7,17.1,0000.0,0007.44,0004.18,0003.92
2024-02-07 06:36:00,SystemResetWarning,0816.5,5.01,000.00,021.9,021.2,000.0,030.4,023.7,16.9,0000.0,0008.93,0004.22,0003.94
2024-02-07 06:37:00,SystemResetWarning,0816.5,4.99,000.00,021.9,021.2,000.0,030.4,023.7,16.9,0000.0,0009.76,0004.29,0003.98
2024-02-07 06:38:00,SystemResetWarning,0816.6,4.99,000.00,021.9,021.2,000.0,030.4,023.7,16.9,0000.0,0009.90,0004.36,0004.01
2024-02-07 06:39:00,SystemResetWarning,0816.8,4.99,000.00,021.9,021.2,000.0,030.4,023.7,16.9,0000.0,0009.95,0004.35,0004.00
2024-02-07 06:40:00,SystemResetWarning,0816.9,5.01,000.00,021.9,021.2,000.0,030.4,023.7,16.8,0000.0,0010.27,0004.33,0003.99
2024-02-07 06:41:00,SystemResetWarning,0816.8,5.01,000.00,021.9,021.2,000.0,030.3,023.6,16.8,0000.0,0010.51,0004.33,0003.99
2024-02-07 06:42:00,SystemResetWarning,0816.7,5.00,000.00,021.9,021.2,000.0,030.3,023.6,16.8,0000.0,0010.48,0004.31,0003.97
2024-02-07 06:43:00,SystemResetWarning,0816.7,4.99,000.00,021.9,021.2,000.0,030.3,023.6,16.8,0000.0,0010.56,0004.29,0003.96
2024-02-07 06:44:00,SystemResetWarning,0816.7,4.99,000.00,021.9,021.1,000.0,030.3,023.6,16.8,0000.0,0010.98,0004.30,0003.95
2024-02-07 06:45:00,SystemResetWarning,0816.7,5.00,000.00,021.8,021.1,000.0,030.3,023.6,16.8,0000.0,0010.79,0004.30,0003.94
2024-02-07 06:46:00,SystemResetWarning,0816.6,5.01,000.00,021.8,021.1,000.0,030.3,023.6,16.8,0000.0,0010.76,0004.32,0003.93
2024-02-07 06:47:00,SystemResetWarning,0816.6,5.00,000.00,021.8,021.1,000.0,030.3,023.6,16.8,0000.0,0009.34,0004.28,0003.91
2024-02-07 06:48:00,SystemResetWarning,0816.6,4.99,000.00,021.8,021.1,000.0,030.3,023.6,16.8,0000.0,0008.65,0004.24,0003.90
2024-02-07 06:49:00,SystemResetWarning,0816.5,4.99,000.00,021.8,021.1,000.0,030.3,023.6,16.8,0000.0,0008.60,0004.21,0003.89
2024-02-07 06:50:00,SystemResetWarning,0816.5,5.00,000.00,021.8,021.1,000.0,030.3,023.5,16.9,0000.0,0008.48,0004.23,0003.89
2024-02-07 06:51:00,SystemResetWarning,0816.5,5.00,000.00,021.8,021.0,000.0,030.3,023.5,16.9,0000.0,0008.01,0004.21,0003.89
2024-02-07 06:52:00,SystemResetWarning,0816.5,5.00,000.00,021.8,021.0,000.0,030.3,023.5,16.9,0000.0,0007.75,0004.21,0003.89
2024-02-07 06:53:00,SystemResetWarning,0816.6,5.01,000.00,021.8,021.0,000.0,030.2,023.5,17.0,0000.0,0007.76,0004.23,0003.90
2024-02-07 06:54:00,SystemResetWarning,0816.6,5.01,000.00,021.8,021.0,000.0,030.2,023.5,16.9,0000.0,0008.59,0004.28,0003.91
2024-02-07 06:55:00,SystemResetWarning,0816.6,4.99,000.00,021.8,021.0,000.0,030.2,023.5,17.0,0000.0,0008.39,0004.29,0003.93
2024-02-07 06:56:00,SystemResetWarning,0816.5,4.99,000.00,021.7,021.0,000.0,030.2,023.5,17.0,0000.0,0008.91,0004.31,0003.96
2024-02-07 06:57:00,SystemResetWarning,0816.5,5.00,000.00,021.7,021.0,000.0,030.2,023.5,17.0,0000.0,0008.94,0004.33,0003.97
2024-02-07 06:58:00,SystemResetWarning,0816.5,5.01,000.00,021.7,021.0,000.0,030.2,023.5,16.9,0000.0,0008.95,0004.32,0003.98
2024-02-07 06:59:00,SystemResetWarning,0816.5,5.00,000.00,021.7,021.0,000.0,030.2,023.5,16.9,0000.0,0008.81,0004.34,0004.00
